Flag for U.S.A. Weather past 2 weeks in Eau Claire, Wisconsin, U.S.A.

Now
79 °F

Passing clouds.


Feels Like: 79 °F
Forecast: 57 / 82 °F
Wind: 12 mph from Northwest

Location: Eau Claire County Airport

Current Time: Jul 31, 2015 at 7:15:28 PM

Latest Report: Jul 31, 2015 at 5:56 PM


Visibility: 10 mi

Pressure: 29.95 "Hg

Humidity: 36%

Dew point: 50 °F

Location of Eau ClaireLocation

Historic Weather in Eau Claire — Graph

°F

Eau Claire temperature yesterday

Maximum temperature yesterday: 84 °F (at 2:56 PM)
Minimum temperature yesterday: 61 °F (at 5:56 AM)
Average temperature yesterday: 73 °F

Past Weeks' High & Low Weather Summary

 TemperatureHumidityPressure
High86 °F (Jul 25, 4:56 PM)97% (Jul 16, 10:56 PM)30.01 "Hg (Jul 16, 10:56 PM)
Low55 °F (Jul 21, 4:56 AM)35% (Jul 29, 12:56 PM)29.66 "Hg (Jul 17, 1:56 AM)
Average73 °F69%29.88 "Hg
* Reported Jul 16 5:56 PM — Jul 31 5:56 PM, Eau Claire, Weather by CustomWeather, © 2015

Note: Actual official high and low records may vary slightly from our data, if they occured in-between our weather recording intervals... More about our weather records

Advertising

Eau Claire weather history for previous 24 hours

 ConditionsComfort  
Time TempWeatherWind HumidityBarometerVisibility
5:56 PM
Fri, Jul 31
79 °FPassing clouds.12 mph36%29.95 "Hg10 mi
4:56 PM80 °FPassing clouds.18 mph35%29.96 "Hg10 mi
3:56 PM79 °FPassing clouds.14 mph36%29.97 "Hg10 mi
2:56 PM81 °FScattered clouds.18 mph37%29.98 "Hg10 mi
1:56 PM80 °FScattered clouds.17 mph36%29.99 "Hg10 mi
12:56 PM79 °FPassing clouds.21 mph39%30.00 "Hg10 mi
11:56 AM78 °FSunny.20 mph42%30.01 "Hg10 mi
10:56 AM76 °FSunny.16 mph45%30.01 "Hg10 mi
9:56 AM74 °FSunny.14 mph50%30.01 "Hg10 mi
8:56 AM71 °FSunny.9 mph57%30.01 "Hg10 mi
7:56 AM68 °FSunny.12 mph63%30.00 "Hg10 mi
6:56 AM64 °FSunny.6 mph75%29.99 "Hg10 mi
5:56 AM62 °FClear.8 mph80%29.98 "Hg10 mi
4:56 AM62 °FClear.8 mph83%29.97 "Hg10 mi
3:56 AM62 °FClear.8 mph83%29.96 "Hg10 mi
2:56 AM62 °FClear.8 mph83%29.96 "Hg10 mi
1:56 AM63 °FClear.5 mph81%29.97 "Hg10 mi
12:56 AM64 °FClear.6 mph78%29.97 "Hg10 mi
11:56 PM
Thu, Jul 30
65 °FClear.7 mph76%29.97 "Hg10 mi
10:56 PM67 °FClear.6 mph71%29.98 "Hg10 mi
9:56 PM70 °FClear.6 mph61%29.98 "Hg10 mi
8:56 PM73 °FSunny.7 mph57%29.97 "Hg10 mi
7:56 PM77 °FSunny.7 mph50%29.97 "Hg10 mi
Weather by CustomWeather, © 2015

See weather overviewHow to use our weather pages